Regional Weather Roundup
Issued by NWS Portland, ME

Current Version | Previous Version | Text Only | Print | Product List | Glossary Off
Versions: 1 2 3 4 5 6 7 8 9 10 11 12 13 14 15 16 17 18 19 20 21 22 23 24 25 26 27 28 29 30 31 32 33 34 35 36 37 38 39 40 41 42 43 44 45 46 47 48 49 50
841 ASUS41 KGYX 211605 RWRGYX WEATHER ROUNDUP FOR MAINE AND NEW HAMPSHIRE NATIONAL WEATHER SERVICE GRAY ME 1200 PM EDT THU MAR 21 2019 MEZ002-005-006-010-012-015-018-020-021-024-026-027-029-211700- MAINE CITY SKY/WX TMP DP RH WIND PRES REMARKS PORTLAND PTSUNNY 43 27 53 S14G26 30.20F SANFORD CLOUDY 46 24 42 S13G20 30.18F BAR HARBOR CLOUDY 42 30 62 S17 30.22F WISCASSET FAIR 44 24 45 S14G21 30.22F ROCKLAND CLOUDY 42 31 64 S8G17 30.22F FRYEBURG PTSUNNY 46 19 34 S10G17 30.14F LEWISTONAUBURN FAIR 44 22 41 S16G24 30.16F AUGUSTA NOT AVBL WATERVILLE FAIR 44 24 45 S8G21 30.14F BANGOR PTSUNNY 45 29 53 S16G25 30.17F GREENVILLE N/A 37 25 61 SE10G18 30.04F MILLINOCKET PTSUNNY 41 25 53 VRB6 30.12F HOULTON FAIR 42 27 55 S9 30.09F PRESQUE ISLE FAIR 39 28 64 SE9 30.07F FRENCHVILLE CLOUDY 39 22 50 SE7 30.02F CARIBOU CLOUDY 38 27 64 S9 30.05F $$ NHZ002-005-008-009-011-012-014-211700- NEW HAMPSHIRE CITY SKY/WX TMP DP RH WIND PRES REMARKS ROCHESTER PTSUNNY 48 23 37 SE13 30.16F NASHUA PTSUNNY 46 26 45 S8 30.16F MANCHESTER CLOUDY 48 23 37 S10 30.14F CONCORD FAIR 46 28 49 S12 30.14F LACONIA CLOUDY 44 20 38 S9 30.14F PLYMOUTH CLOUDY 43 27 52 CALM 30.13F BERLIN FAIR 43 23 45 S13 30.06F WHITEFIELD CLOUDY 45 26 47 S10G18 30.07F JAFFREY CLOUDY 43 23 45 S8 30.11F KEENE CLOUDY 44 28 53 SW16 30.13F LEBANON CLOUDY 44 28 53 S16G24 30.11F MT WASHINGTON FOG 19 19 100 S30G36 N/A VSB 1/16WCI 0 $$ VTZ005-007-008-211700- VERMONT CITY SKY/WX TMP DP RH WIND PRES REMARKS ST JOHNSBURY N/A 42 28 57 MISG 30.06F MONTPELIER CLOUDY 41 27 57 S13 30.09F BURLINGTON CLOUDY 44 28 53 S17G24 30.05F $$ MAZ007-012-024-CTZ003-RIZ002-NYZ038-NYZ072-211700- SOUTHERN NEW ENGLAND AND NY CITY SKY/WX TMP DP RH WIND PRES REMARKS BOSTON CLOUDY 48 32 53 E10 30.17F WORCESTER CLOUDY 42 27 55 S14 30.13F NANTUCKET PTSUNNY 46 31 55 SE24 30.18F PROVIDENCE CLOUDY 46 33 60 S12 30.18F HARTFORD CLOUDY 46 33 60 SE9 30.14F ALBANY CLOUDY 44 34 67 S8 30.10F NEW YORK CITY LGT RAIN 42 38 85 NE15 30.07F $$ ANZ081-ANZ082-ANZ150-NHZ014-MEZ023>029-211700- COASTAL MARINE OBSERVATIONS STATION/POSITION TIME TEMP WIND PRES WAVE AIR SEA DIR/SP/G HT/PER (UTC) (F) (DEG/KT/KT) (MB) (FT/S) MOUNT DESERT ROC 1600 40 180/ 19/ 22 1023.7F MATINICUS ROCK 1500 40 200/ 17/ 18 1023.4F ISLE OF SHOALS 1500 38 160/ 12/ 12 1023.2F CASHES LEDGE BUO 1550 43 40 1023.3F 3/ 5 $$ .............KEY.............. WCI - WIND CHILL TC - TEMPERATURE IN CELSIUS VSB - VISIBILITY IN MILES HX - HEAT INDEX FAIR- INDICATES FEW OR NO CLOUDS BELOW 12,000 FT, WITH NO SIGNIFICANT WEATHER AND/OR OBSTRUCTIONS TO VISIBILITY.

USA.gov is the U.S. government's official web portal to all federal, state and local government web resources and services.